ASTERIA

Last updated on April 25, 2020, 12:02 a.m. UTC

1 43020U 98067NH  20115.24608386  .13500826  12580-4  23780-3 0  9993
2 43020  51.6421 146.4962 0005584 252.9464 107.0954 16.47464318139010

Satellite is not in orbit.